EW0805 Weather Reports


time (UTC)temp
C
wind
direction
speed
KPH
gust
KPH
rain 1hr
cm
rain 24hr
cm
rain mn
cm
humidity
%
barometer
mb
20260502123033 23 173 1.6 9.7 0.00 0.00 0.00 45 1015.5
20260502121537 23 27 3.2 8.0 0.00 0.00 0.00 47 1015.8
20260502114517 22 133 1.6 6.4 0.00 0.00 0.00 49 1016.3
20260502113013 21 146 1.6 12.9 0.00 0.00 0.00 49 1016.5
20260502111508 21 310 0.0 6.4 0.00 0.00 0.00 49 1016.7
20260502110004 20 262 3.2 9.7 0.00 0.00 0.00 50 1016.9
20260502104559 20 93 0.0 6.4 0.00 0.00 0.00 53 1017.2
20260502103108 19 185 1.6 9.7 0.00 0.00 0.00 55 1017.4
20260502101604 18 186 4.8 9.7 0.00 0.00 0.00 58 1017.4
20260502091533 15 49 1.6 8.0 0.00 0.00 0.00 41 1018.1
20260502070054 9 140 1.6 6.4 0.00 0.00 0.00 1 1018.9
20260502064550 9 245 0.0 4.8 0.00 0.00 0.00 1 1018.8
20260502063048 9 215 0.0 6.4 0.00 0.00 0.00 1 1018.8
20260502061541 8 292 1.6 6.4 0.00 0.00 0.00 1 1018.8
20260502060037 8 148 1.6 6.4 0.00 0.00 0.00 1 1018.8
20260502054540 8 239 1.6 6.4 0.00 0.00 0.00 1 1018.7
20260502053028 8 243 1.6 8.0 0.00 0.00 0.00 1 1018.8
20260502051523 8 247 3.2 6.4 0.00 0.00 0.00 1 1018.8
20260502050019 8 214 1.6 8.0 0.00 0.00 0.00 1 1018.6
20260502044515 8 244 3.2 8.0 0.00 0.00 0.00 1 1018.7
20260502043010 8 215 3.2 11.3 0.00 0.00 0.00 1 1018.6
20260502041507 8 200 1.6 8.0 0.00 0.00 0.00 1 1018.7
20260502040001 8 191 1.6 6.4 0.00 0.00 0.00 1 1018.7
20260502034558 8 154 0.0 6.4 0.00 0.00 0.00 1 1018.8
20260502033057 9 153 3.2 8.0 0.00 0.00 0.00 1 1018.8
20260502031549 9 244 1.6 8.0 0.00 0.00 0.00 1 1019.0
20260502030045 9 210 1.6 8.0 0.00 0.00 0.00 1 1018.9
20260502024540 10 210 0.0 8.0 0.00 0.00 0.00 1 1019.0
20260502023037 10 257 3.2 11.3 0.00 0.00 0.00 1 1019.0
20260502021531 10 192 3.2 8.0 0.00 0.00 0.00 1 1019.0
20260502020026 10 220 3.2 9.7 0.00 0.00 0.00 1 1019.1
20260502014527 10 231 3.2 8.0 0.00 0.00 0.00 1 1019.1
20260502013017 10 227 1.6 6.4 0.00 0.00 0.00 1 1019.2
20260502011514 11 218 0.0 4.8 0.00 0.00 0.00 1 1019.2
20260502010012 11 233 0.0 4.8 0.00 0.00 0.00 1 1019.3
20260502004506 11 237 1.6 8.0 0.00 0.00 0.00 1 1019.5
20260502003059 11 266 1.6 8.0 0.00 0.00 0.00 1 1019.8
20260502001555 11 235 1.6 8.0 0.00 0.00 0.00 1 1020.0
20260502000059 12 220 0.0 3.2 0.00 0.00 0.00 1 1020.0
20260501234546 12 204 0.0 8.0 0.00 0.00 0.00 1 1019.9
20260501233043 12 217 3.2 8.0 0.00 0.00 0.00 1 1020.1
20260501231540 12 250 3.2 8.0 0.00 0.00 0.00 1 1020.0
20260501230033 13 191 1.6 6.4 0.00 0.00 0.00 6 1020.3
20260501224529 13 207 3.2 12.9 0.00 0.00 0.00 15 1020.0
20260501223027 13 236 3.2 8.0 0.00 0.00 0.00 23 1020.1
20260501221525 13 218 3.2 9.7 0.00 0.00 0.00 28 1020.1
20260501220023 13 223 4.8 9.7 0.00 0.00 0.00 33 1020.0
20260501214523 14 210 6.4 12.9 0.00 0.00 0.00 33 1020.0
20260501213023 14 147 3.2 9.7 0.00 0.00 0.00 36 1020.1
20260501211527 15 166 1.6 8.0 0.00 0.00 0.00 37 1020.0
20260501210021 15 168 0.0 6.4 0.00 0.00 0.00 38 1019.8
20260501204523 15 177 1.6 6.4 0.00 0.00 0.00 42 1019.9
20260501203020 15 206 0.0 4.8 0.00 0.00 0.00 45 1019.9
20260501201520 16 227 1.6 6.4 0.00 0.00 0.00 47 1019.8
20260501200018 16 185 3.2 11.3 0.00 0.00 0.00 51 1019.8
20260501194518 16 164 0.0 4.8 0.00 0.00 0.00 54 1019.7
20260501193024 16 209 1.6 4.8 0.00 0.00 0.00 56 1019.5
20260501191521 17 161 0.0 9.7 0.00 0.00 0.00 56 1019.5
20260501190016 17 171 3.2 11.3 0.00 0.00 0.00 57 1019.4
20260501184515 17 171 3.2 12.9 0.00 0.00 0.00 58 1019.3
20260501183018 17 164 4.8 16.1 0.00 0.00 0.00 59 1019.3
20260501181514 18 164 6.4 16.1 0.00 0.00 0.00 59 1019.2
20260501180020 18 228 6.4 16.1 0.00 0.00 0.00 59 1019.3
20260501174519 18 221 11.3 20.9 0.00 0.00 0.00 59 1019.2
20260501173008 19 219 4.8 16.1 0.00 0.00 0.00 59 1019.2
20260501171506 20 200 8.0 22.5 0.00 0.00 0.00 59 1019.2
20260501170106 20 140 6.4 17.7 0.00 0.00 0.00 59 1019.2
20260501164505 21 195 8.0 19.3 0.00 0.00 0.00 58 1019.2
20260501163008 21 189 12.9 22.5 0.00 0.00 0.00 57 1019.2
20260501161504 22 160 6.4 19.3 0.00 0.00 0.00 58 1019.2
20260501160002 22 187 11.3 20.9 0.00 0.00 0.00 56 1019.2
20260501154504 22 145 8.0 19.3 0.00 0.00 0.00 56 1019.2
20260501153002 22 175 8.0 24.1 0.00 0.00 0.00 56 1019.2
20260501151500 23 163 14.5 22.5 0.00 0.00 0.00 54 1019.3
20260501150104 23 232 11.3 20.9 0.00 0.00 0.00 54 1019.4
20260501144603 24 207 6.4 20.9 0.00 0.00 0.00 52 1019.3
20260501143106 25 144 9.7 19.3 0.00 0.00 0.00 50 1019.2